RH
57 48 38 40 49 62 66 56 46 44 35 25 25 26 26 34 28 26 73 71 84 82 82 80 80 77 72 69 66 65 62 60 56 61 56 65 63 59 57 58 58 58 62 55 57 53 55 63 68
63 37 37 52 55 71 61 50 52 42 36 24 25 30 28 33 58 78 74 83 80 83 84 86 84 75 70 69 67 64 62 60 57 58 65 65 62 63 60 58 55 57 59 59 61 52 53 56 54
37 34 38 51 65 62 58 50 45 37 26 24 26 26 31 32 56 71 70 78 81 88 87 85 85 76 71 68 68 64 63 59 60 60 67 68 63 64 61 59 56 57 59 59 63 58 57 56 52
34 32 35 49 54 44 46 38 32 39 27 20 24 32 39 53 53 60 63 72 86 93 94 89 85 79 76 70 68 65 61 61 58 68 69 69 64 63 59 57 58 60 59 58 58 62 60 60 56
39 36 42 45 40 36 31 27 29 34 33 26 22 32 42 56 72 65 65 70 82 90 94 89 86 81 78 72 70 67 62 62 58 59 67 67 68 63 62 60 58 61 62 62 60 60 64 63 63
43 38 42 44 37 30 25 23 25 34 35 24 25 37 45 67 68 66 62 71 73 85 88 88 87 84 80 75 72 69 64 64 62 64 67 67 63 63 65 64 62 63 68 68 64 61 62 66 65
48 52 52 44 37 31 24 24 33 33 36 23 23 42 64 70 62 62 64 67 84 90 92 94 92 88 83 79 78 74 70 71 70 60 67 70 69 67 68 65 68 66 68 67 64 59 60 64 66
49 48 53 44 36 33 27 32 28 28 26 22 27 38 43 52 59 63 64 63 86 94 93 97 95 91 92 90 84 80 78 77 73 72 76 78 77 79 72 76 73 69 70 68 64 61 56 58 65
46 56 54 40 38 32 29 32 28 28 26 26 40 41 44 52 64 68 72 70 79 91 96 97 96 94 93 91 87 83 82 79 77 81 82 83 91 89 88 87 83 76 72 70 66 62 57 62 69
50 64 53 37 36 39 32 34 30 31 31 32 46 61 63 62 69 67 69 70 72 82 93 96 96 94 91 69 84 94 85 88 89 92 92 94 93 92 85 92 86 76 76 75 70 66 62 70 85
51 56 45 39 37 38 34 32 31 33 33 29 28 55 66 70 70 67 68 69 68 70 71 85 94 91 89 76 87 98 97 97 96 94 95 95 88 96 96 98 96 97 89 95 83 85 83 82 88
61 46 42 40 39 38 33 31 32 31 29 28 27 34 66 67 69 67 66 66 74 71 67 67 81 86 89 79 87 94 91 96 98 96 94 97 96 96 97 98 95 97 97 97 97 98 94 89 86
59 50 44 40 40 35 31 34 34 30 25 28 27 51 64 66 66 68 68 68 68 70 68 66 72 77 76 80 92 92 85 87 88 91 87 88 91 92 95 96 97 97 98 98 98 98 94 95 89
48 42 37 35 33 35 35 34 36 28 25 25 29 42 58 65 62 70 68 62 64 63 62 65 66 68 71 70 84 82 80 80 84 82 82 82 81 82 85 84 87 89 96 94 93 94 92 89 82
41 48 43 36 35 34 35 33 30 26 28 25 27 30 34 48 57 62 59 61 61 58 56 65 65 68 74 69 68 67 74 73 78 77 76 76 75 76 73 77 76 78 89 88 88 89 89 88 79
46 49 55 41 40 35 31 46 31 27 34 29 27 31 28 30 31 34 32 39 52 56 52 59 54 64 71 70 72 65 60 66 70 72 74 72 72 77 80 80 79 79 82 84 82 78 79 83 80
56 60 54 43 35 35 34 40 29 31 27 28 34 31 34 38 39 45 46 47 43 44 55 53 63 65 67 72 74 80 70 66 64 76 74 70 73 75 80 81 80 82 82 81 78 76 83 70 78
60 60 52 46 33 40 39 36 31 32 26 31 32 38 40 40 41 48 52 60 54 57 52 51 56 62 76 75 85 94 91 79 81 74 72 73 72 72 78 73 74 83 84 79 85 77 81 76 71
47 49 48 39 32 36 38 38 32 32 30 34 39 41 44 43 48 50 54 60 62 64 58 55 50 53 73 91 94 94 84 90 94 87 79 78 76 72 75 73 72 83 80 74 74 76 78 78 93
45 47 47 38 35 36 38 33 34 27 33 41 40 44 46 49 49 50 54 60 60 62 64 58 54 54 67 78 83 85 90 94 92 91 89 85 84 79 76 75 72 74 81 80 79 80 79 78 88
50 50 47 46 40 39 48 45 34 35 39 42 44 44 46 48 50 54 58 64 65 63 60 54 56 60 61 72 81 86 87 90 90 92 93 90 88 84 83 78 77 76 82 80 80 85 85 81 74
51 39 39 44 49 51 47 56 42 40 41 45 49 46 46 48 53 57 60 62 67 64 60 56 54 53 50 63 67 73 80 81 85 88 88 83 83 88 87 84 83 82 81 84 82 79 86 83 87
41 40 44 46 52 60 51 51 44 40 43 44 48 47 46 51 56 60 61 60 63 64 64 61 56 53 55 55 58 66 65 78 81 78 70 69 72 73 76 86 91 90 86 85 83 85 86 86 88
40 40 48 55 55 64 50 48 46 45 38 45 52 48 44 51 59 60 61 59 60 62 63 63 58 58 57 56 56 57 59 60 60 64 66 66 69 74 64 59 72 90 93 91 86 86 89 90 90
41 52 67 67 70 64 52 50 40 34 40 34 45 48 47 52 58 60 61 62 61 61 60 56 59 60 59 59 59 61 62 64 65 65 66 65 61 64 55 57 56 56 59 64 78 91 93 93 94
45 49 66 70 75 61 45 47 34 36 39 40 43 47 48 53 58 58 60 62 60 58 60 59 60 61 62 62 62 64 66 69 68 67 68 68 67 66 62 59 56 55 54 55 59 70 76 80 88
42 54 49 58 70 62 56 46 36 46 51 49 52 48 49 53 57 58 59 59 58 60 61 61 62 65 66 68 68 68 70 70 71 72 70 70 63 53 55 60 64 59 59 58 58 59 63 67 74
44 39 52 60 65 66 56 52 45 52 54 53 54 52 51 51 57 59 59 58 61 62 65 67 69 70 71 71 72 69 74 71 70 66 66 59 56 55 57 56 55 56 58 59 61 61 59 63 65
44 45 42 50 56 60 62 50 41 38 45 49 51 51 51 54 58 59 59 62 64 68 72 74 74 67 65 69 70 72 76 72 69 62 60 56 55 53 54 53 55 56 59 54 55 56 55 57 61
49 44 43 50 52 59 57 48 36 45 36 40 47 49 56 56 58 60 63 69 74 76 77 74 69 64 62 65 67 66 69 61 56 52 49 49 50 48 48 50 52 50 47 50 56 57 57 63 56
Wind_Speed
7 7 3 5 4 5 3 5 4 5 4 3 0 2 4 2 3 4 1 6 9 12 9 12 14 17 15 13 11 10 9 9 7 6 6 10 8 6 6 5 4 4 5 3 1 6 6 4 6
5 4 6 3 5 2 4 4 2 7 3 5 2 1 2 2 1 3 4 6 13 12 9 8 16 17 15 13 11 10 10 8 7 8 6 10 9 7 6 6 4 4 4 4 2 3 4 2 4
6 4 4 4 3 4 4 4 6 5 5 4 1 3 3 2 1 7 4 11 11 10 9 9 17 16 16 13 12 9 9 7 7 9 7 10 10 9 7 6 6 4 5 5 5 1 5 2 2
4 6 5 4 3 6 4 8 9 4 4 5 3 2 1 2 4 7 8 12 10 8 8 13 17 17 15 14 13 10 10 8 8 9 8 9 10 10 6 6 7 6 5 4 4 4 2 5 5
5 4 4 2 5 5 5 7 8 6 2 2 3 4 2 5 2 7 8 11 11 8 8 12 18 17 16 16 14 11 11 10 8 6 6 5 11 9 8 6 7 6 6 5 5 6 7 5 6
4 3 4 2 5 6 7 8 8 4 4 3 4 7 4 1 5 6 7 7 9 10 9 10 16 17 17 16 15 13 12 11 11 11 5 4 6 6 8 7 7 8 8 7 7 7 8 9 9
5 4 3 4 6 5 5 10 5 6 2 6 5 5 2 4 8 7 7 6 6 7 9 7 8 10 15 14 14 13 11 11 11 12 9 7 5 6 8 7 6 10 9 8 8 9 10 11 11
5 4 1 4 3 5 5 11 7 4 4 2 4 5 5 7 10 7 6 6 7 6 8 8 6 7 7 6 13 12 11 9 11 9 9 7 6 7 7 6 8 11 10 10 10 11 12 12 13
3 4 3 5 3 4 7 7 6 4 4 2 5 3 4 7 9 6 4 3 5 6 6 7 8 7 7 6 7 11 12 11 11 7 11 7 4 5 7 7 9 10 11 12 12 13 13 12 12
4 4 8 6 3 5 8 6 7 7 9 2 3 4 4 8 6 8 7 9 8 9 7 8 8 8 7 6 6 6 6 5 5 5 6 4 5 5 6 7 11 14 14 15 14 14 13 11 4
5 6 5 8 9 6 6 8 3 3 6 5 5 5 4 4 7 8 8 10 10 6 6 10 8 8 8 6 4 3 3 3 3 6 6 5 4 4 4 3 4 5 9 4 8 6 4 5 4
3 8 6 8 7 4 5 4 7 5 9 4 9 6 8 8 10 11 12 10 5 7 8 8 10 8 7 5 5 5 5 4 4 5 7 5 4 4 5 4 7 5 4 5 5 3 5 6 6
4 6 6 12 10 7 7 7 8 6 12 6 9 7 13 10 11 8 8 6 8 9 10 10 9 11 9 7 5 5 6 6 6 5 7 6 6 6 5 5 5 6 4 5 5 5 6 6 7
5 5 7 7 9 5 5 9 2 7 7 9 5 10 9 10 15 6 8 13 12 9 12 10 12 11 10 10 9 8 7 8 6 7 8 10 8 8 7 7 8 7 6 5 6 7 7 7 7
5 6 7 9 7 6 2 9 9 11 5 9 8 9 9 13 4 9 5 9 7 8 7 11 11 10 11 12 10 7 7 7 7 7 9 10 10 10 10 7 8 5 3 5 5 5 4 4 5
2 2 2 5 4 7 8 10 13 9 5 11 10 6 6 6 4 4 6 6 7 8 10 9 10 11 11 11 7 6 7 6 7 6 6 9 8 7 6 5 5 4 4 5 5 6 7 6 6
3 4 5 10 7 3 6 8 12 2 6 7 3 5 5 6 8 7 7 7 7 6 7 8 8 10 13 10 7 7 7 7 6 5 5 7 7 7 6 5 6 6 5 6 6 7 6 9 7
5 4 5 6 4 7 6 12 10 5 4 3 7 6 6 7 6 6 8 8 7 7 8 3 4 5 5 3 3 2 3 5 4 6 7 7 6 7 7 8 9 6 5 7 5 10 6 9 9
4 3 4 8 9 8 9 6 11 2 5 8 6 6 6 5 1 5 7 8 8 8 9 8 7 4 4 3 2 2 6 4 4 5 6 6 6 8 8 8 9 7 9 12 10 8 10 10 4
5 6 9 10 4 1 1 8 8 3 4 5 8 6 5 4 6 8 8 8 9 7 8 8 7 8 1 2 1 2 1 3 3 2 5 6 6 8 8 9 10 10 8 10 11 10 10 9 5
6 8 5 6 6 5 1 7 2 3 3 4 3 4 4 6 6 8 9 8 8 10 9 9 8 8 7 4 2 2 2 1 3 2 3 5 7 8 9 11 10 10 7 10 10 9 11 12 10
8 9 8 3 2 3 2 5 3 4 5 3 5 5 6 7 6 6 7 8 8 8 8 9 9 9 9 9 7 7 3 3 2 3 3 5 5 7 7 9 10 10 8 10 11 10 11 11 12
10 6 3 0 1 3 2 1 7 6 6 7 7 7 6 6 7 6 6 6 6 7 8 8 8 11 9 9 8 5 5 2 2 3 6 7 6 6 6 6 7 8 7 10 12 11 11 10 11
6 4 7 5 2 2 8 7 6 9 11 6 4 6 8 7 6 5 4 6 7 7 7 7 9 9 9 9 9 9 9 8 7 6 6 6 5 5 8 9 8 6 6 8 10 11 12 11 11
6 6 1 2 1 7 1 3 10 9 8 16 11 9 8 7 6 6 5 5 5 7 7 6 8 8 8 9 9 9 8 8 7 6 4 6 6 5 9 9 10 8 8 9 9 9 10 12 12
6 8 6 7 5 4 1 7 7 5 3 9 9 9 8 7 6 6 5 4 4 6 7 8 8 9 8 8 8 7 8 5 4 5 4 4 4 5 7 9 9 10 10 10 9 7 7 10 10
5 4 4 2 2 2 4 7 2 8 8 10 10 8 8 7 6 7 5 5 5 8 8 7 8 8 8 8 7 8 7 8 7 7 6 5 6 9 11 10 9 10 10 10 11 8 10 9 8
4 4 2 2 3 4 4 5 5 1 7 8 8 9 7 6 6 5 4 4 6 7 6 8 7 7 6 7 6 6 7 7 7 7 9 10 10 10 11 12 12 12 12 11 11 11 11 11 9
2 1 2 3 4 4 1 6 6 9 8 11 9 8 9 8 6 5 4 6 7 6 7 6 7 7 8 7 6 7 6 6 6 6 7 8 9 10 11 12 12 12 12 12 12 12 14 13 13
3 6 5 5 4 1 3 7 3 1 7 8 10 8 4 6 7 5 6 7 7 6 6 6 6 7 6 6 6 6 6 8 9 10 11 11 11 12 13 13 13 13 14 13 13 14 13 10 16
Wind_Direction
319 323 62 42 63 65 251 272 271 315 283 229 348 224 150 97 171 216 309 174 135 152 164 169 177 168 161 171 175 176 180 171 167 191 177 159 146 159 151 136 137 120 106 120 100 165 139 112 160
334 343 37 80 94 101 269 251 264 251 259 330 128 64 36 235 139 151 120 170 147 154 161 166 169 167 165 172 175 176 178 180 182 204 185 164 155 139 138 133 158 148 145 146 155 166 112 130 171
337 42 75 93 112 190 213 237 282 289 270 215 167 74 149 221 334 174 197 152 144 156 163 168 170 171 170 174 176 179 179 180 191 204 196 177 158 154 152 159 167 167 162 156 162 326 173 116 160
11 7 21 86 238 256 234 288 283 268 280 224 120 112 351 301 185 200 137 151 147 161 162 168 171 173 173 175 175 180 185 192 212 210 186 173 169 161 174 181 180 183 174 180 185 192 203 213 215
34 59 33 355 273 269 267 256 264 259 260 270 173 204 243 334 17 138 139 155 157 168 166 169 173 177 176 176 180 177 187 194 201 208 181 200 174 176 174 197 193 189 195 201 209 211 213 230 220
25 96 39 292 267 281 291 265 282 222 220 253 149 143 226 177 138 192 155 161 166 165 172 174 178 178 179 179 181 181 190 197 196 207 174 198 181 171 187 206 216 208 207 212 218 223 226 225 228
115 84 212 251 259 317 280 326 263 281 2 267 158 136 277 227 212 180 174 155 165 157 163 169 173 179 183 183 183 183 195 205 218 214 201 217 231 200 205 216 224 215 218 227 233 235 232 230 230
113 97 242 254 255 271 289 327 334 55 286 259 154 188 244 218 179 170 169 167 176 171 168 167 167 169 173 179 185 183 193 214 199 203 192 203 207 193 216 221 232 221 222 231 238 241 240 234 233
110 71 242 252 222 278 308 342 305 283 299 355 329 139 269 128 140 143 158 202 179 194 183 179 179 183 178 185 193 190 194 201 204 211 188 196 201 218 214 205 223 222 225 230 238 244 244 240 234
122 149 223 216 231 283 298 300 307 355 336 305 344 6 49 118 163 168 183 208 198 195 203 194 189 192 183 189 189 194 197 197 200 186 193 191 199 216 218 221 221 229 225 228 236 244 245 240 223
183 200 223 261 254 247 262 293 285 323 312 252 240 203 208 160 189 198 213 210 214 195 193 198 194 193 189 200 175 179 197 196 202 200 195 201 206 220 223 224 232 223 231 231 240 251 249 230 223
190 239 226 270 262 277 251 273 292 220 239 267 286 231 172 194 212 209 215 220 209 214 220 193 196 192 198 192 180 182 192 202 206 206 201 201 219 227 229 221 223 219 224 227 232 242 247 246 236
211 250 262 264 279 246 260 259 245 259 268 309 265 174 194 204 216 228 224 226 220 222 218 214 185 197 197 189 185 180 199 205 210 209 212 207 217 224 219 224 219 220 209 213 224 227 235 237 239
220 225 258 281 271 265 259 274 175 257 285 304 228 232 215 214 219 223 225 228 221 220 219 209 206 196 187 191 187 194 194 207 204 212 218 215 217 223 221 221 224 230 217 218 225 225 228 233 234
241 277 306 255 246 248 297 294 241 263 296 279 248 243 245 235 280 252 317 266 251 240 222 211 207 198 195 199 196 195 200 200 211 219 219 222 219 223 226 228 231 240 229 244 249 258 258 256 247
308 71 307 284 246 245 161 274 276 287 279 263 256 20 333 345 18 16 352 276 246 230 219 212 207 199 204 207 197 196 203 205 215 213 219 226 228 223 231 245 246 229 218 218 218 225 239 235 228
358 244 242 309 220 159 168 257 261 301 353 281 346 115 81 56 36 13 8 358 3 333 249 225 205 201 203 208 201 196 200 211 218 210 216 220 219 210 214 224 233 216 221 229 235 244 229 253 246
204 231 256 242 270 186 183 248 278 320 312 289 116 90 77 65 30 2 13 11 9 7 25 17 241 229 234 239 191 191 205 225 209 221 223 216 217 215 214 236 241 216 226 240 226 240 232 245 255
168 248 276 270 262 171 210 236 261 279 101 113 124 120 110 94 11 31 20 7 5 20 27 23 24 348 165 150 167 211 224 224 229 226 236 221 222 226 221 237 243 222 232 242 234 231 240 254 206
242 284 287 287 290 212 224 264 277 139 166 157 151 143 118 80 39 24 17 12 18 15 17 22 21 11 30 144 137 155 181 242 241 228 241 240 237 235 233 237 245 239 239 245 244 234 248 250 206
223 218 248 230 326 329 47 303 195 11 101 146 141 136 101 83 58 27 16 12 8 22 14 25 20 19 18 39 105 90 82 30 12 340 281 261 252 255 248 251 247 249 230 244 244 231 228 251 249
232 218 234 252 43 240 64 275 283 222 189 165 161 116 93 71 52 39 23 22 16 11 20 30 27 27 30 26 48 54 58 29 328 306 312 305 287 274 263 260 259 254 245 243 244 241 233 240 249
227 188 163 171 97 29 297 76 267 139 228 211 207 147 122 90 85 61 42 36 24 22 25 22 27 33 25 42 53 59 49 18 311 345 359 357 346 353 338 309 288 273 266 258 257 257 247 243 245
151 90 38 45 73 308 222 165 262 189 208 194 193 171 141 123 112 94 59 44 34 25 29 28 32 25 23 31 29 38 37 17 20 5 6 351 344 346 0 355 350 323 300 287 280 272 265 260 255
84 81 343 329 327 226 145 132 251 214 196 188 167 172 160 150 138 110 90 63 46 37 31 29 37 31 22 34 35 30 31 34 31 13 2 1 354 346 351 350 350 346 336 331 319 299 285 281 280
180 155 163 205 198 240 73 232 253 248 118 118 144 150 161 159 137 138 133 110 60 39 32 35 42 38 27 27 25 24 28 25 18 7 351 353 350 328 334 338 341 337 336 333 329 320 308 304 297
191 180 192 136 13 41 225 285 323 32 93 121 138 154 170 171 166 156 137 93 63 46 41 58 55 41 29 27 23 24 20 21 14 3 2 353 345 343 341 335 328 327 324 324 323 319 314 311 301
136 169 95 352 196 243 291 278 248 129 149 139 160 177 190 185 161 141 132 111 68 75 59 53 47 46 27 26 24 21 14 11 6 4 359 354 344 340 336 333 330 326 322 321 320 317 313 309 304
121 236 88 130 138 184 260 270 216 199 193 170 186 196 193 176 169 167 132 80 90 71 59 54 44 36 25 20 10 13 7 359 357 359 348 344 337 337 333 329 325 322 319 320 317 314 310 312 309
196 193 151 131 217 155 153 272 317 186 182 162 201 206 162 169 168 123 102 103 85 79 67 54 39 32 14 3 4 5 9 8 5 358 351 346 342 340 337 335 331 329 326 320 316 311 313 323 315